Weather History for CWSP - February, 2013

Change the Weather History Date:

Tuesday, February 19, 2013

  Actual Average Record
Temperature  
Mean Temperature 43 °F -  
Max Temperature 46 °F - - ()
Min Temperature 40 °F - - ()
Degree Days  
Heating Degree Days 22    
Moisture  
Dew Point 36 °F    
Average Humidity 78    
Maximum Humidity 89    
Minimum Humidity 63    
Precipitation  
Precipitation 0.00 in - - ()
Sea Level Pressure  
Sea Level Pressure 29.83 in    
Wind  
Wind Speed 21 mph ()    
Max Wind Speed 39 mph    
Max Gust Speed -    
T = Trace of Precipitation, MM = Missing Value Source: Averaged Metar Reports

Daily Weather History Graph

Daily Weather History Graph

Search for Another Location

Airport or City:

Trip Planner

Search our weather history database for the weather conditions in past years. The results will help you decide how hot, cold, wet, or windy it might be!

Date:

Astronomy

Feb. 19, 2013 Rise Set
Actual Time 7:15 AM PST 5:44 PM PST
Civil Twilight 6:43 AM PST 6:16 PM PST
Nautical Twilight 6:06 AM PST 6:52 PM PST
Astronomical Twilight 5:30 AM PST 7:29 PM PST
Moon 12:05 PM PST (2/19) 3:06 AM PST (2/19)
Length of Visible Light 11h 33m
Length of Day
10h 29m
Waxing Gibbous, 68% of the Moon is Illuminated
Feb 19
Waxing Gibbous
Feb 25
Full
Mar 4
Last Quarter
Mar 11
New
Mar 19
First Quarter

Hourly Weather History & Observations

Time (PST) Temp. Windchill Dew Point Humidity Pressure Visibility Wind Dir Wind Speed Gust Speed Precip Events Conditions
12:00 AM 42.6 °F 31.0 °F 37.2 °F 81% 29.72 in - North 36.8 mph - N/A   Unknown
1:00 AM 42.4 °F 31.3 °F 37.0 °F 81% 29.72 in - North 33.4 mph - N/A   Unknown
2:00 AM 42.1 °F 35.2 °F 35.8 °F 78% 29.72 in - North 12.7 mph - N/A   Unknown
3:00 AM 42.1 °F 30.0 °F 35.6 °F 78% 29.73 in - North 39.1 mph - N/A   Unknown
4:00 AM 41 °F - 36 °F 75% 29.73 in - Calm Calm - -  
4:00 AM 40.8 °F 34.5 °F 35.8 °F 82% 29.73 in - North 10.4 mph - N/A   Unknown
5:00 AM 42.4 °F 30.8 °F 37.4 °F 82% 29.75 in - North 36.8 mph - N/A   Unknown
6:00 AM 42.1 °F 36.1 °F 35.6 °F 78% 29.76 in - North 10.4 mph - N/A   Unknown
7:00 AM 42.3 °F - 34.9 °F 75% 29.78 in - North 2.3 mph - N/A   Unknown
8:00 AM 42.4 °F 38.1 °F 34.9 °F 75% 29.80 in - North 6.9 mph - N/A   Unknown
9:00 AM 42.8 °F 39.3 °F 35.8 °F 76% 29.81 in - North 5.8 mph - N/A   Unknown
10:00 AM 43.7 °F 38.6 °F 35.8 °F 74% 29.81 in - North 9.2 mph - N/A   Unknown
11:00 AM 44.8 °F 41.0 °F 34.2 °F 66% 29.83 in - North 6.9 mph - N/A   Unknown
12:00 PM 45.9 °F 40.0 °F 33.8 °F 63% 29.84 in - North 12.7 mph - N/A   Unknown
1:00 PM 43.3 °F 35.0 °F 37.4 °F 80% 29.86 in - North 19.6 mph - N/A   Unknown
2:00 PM 43.7 °F 34.3 °F 37.2 °F 78% 29.88 in - North 25.3 mph - N/A   Unknown
5:00 PM 45.0 °F 35.1 °F 36.0 °F 71% 29.89 in - North 31.1 mph - N/A   Unknown
7:00 PM 43.2 °F 32.1 °F 37.8 °F 81% 29.92 in - North 34.5 mph - N/A   Unknown
8:00 PM 42.3 °F 30.9 °F 37.9 °F 85% 29.94 in - North 34.5 mph - N/A   Unknown
9:00 PM 40.8 °F 29.4 °F 37.0 °F 86% 29.96 in - North 31.1 mph - N/A   Unknown
10:00 PM 40 °F - 36 °F 82% 29.97 in - Calm Calm - -  
10:00 PM 40.1 °F 28.6 °F 36.3 °F 86% 29.97 in - North 29.9 mph - N/A   Unknown
11:00 PM 41.0 °F 29.3 °F 37.9 °F 89% 29.99 in - North 33.4 mph - N/A   Unknown